| time (UTC) | temp F | wind direction | speed MPH | gust MPH | rain 1hr in | rain 24hr in | rain mn in | humidity % | barometer mb |
| 20260905004028 | 101 | 256 | 2.0 | 7.0 | 0.00 | 0.00 | 0.00 | 29 | 1007.6 |
| 20260905003128 | 101 | 281 | 1.0 | 6.0 | 0.00 | 0.00 | 0.00 | 29 | 1007.7 |
| 20260905002227 | 100 | 246 | 1.0 | 2.0 | 0.00 | 0.00 | 0.00 | 30 | 1007.7 |
| 20260905001328 | 99 | 263 | 2.0 | 7.0 | 0.00 | 0.00 | 0.00 | 30 | 1007.7 |
| 20260905000428 | 100 | 17 | 3.0 | 5.0 | 0.00 | 0.00 | 0.00 | 30 | 1007.8 |
| 20260904235528 | 101 | 315 | 2.0 | 9.0 | 0.00 | 0.00 | 0.00 | 29 | 1007.8 |
| 20260904234628 | 102 | 269 | 2.0 | 5.0 | 0.00 | 0.00 | 0.00 | 29 | 1007.8 |
| 20260904232828 | 102 | 195 | 3.0 | 7.0 | 0.00 | 0.00 | 0.00 | 28 | 1007.9 |
| 20260904231927 | 102 | 239 | 2.0 | 7.0 | 0.00 | 0.00 | 0.00 | 28 | 1008.0 |
| 20260904231028 | 101 | 224 | 2.0 | 5.0 | 0.00 | 0.00 | 0.00 | 30 | 1008.1 |
| 20260904230128 | 100 | 171 | 3.0 | 9.0 | 0.00 | 0.00 | 0.00 | 30 | 1008.1 |
| 20260904224327 | 101 | 197 | 4.0 | 9.0 | 0.00 | 0.00 | 0.00 | 30 | 1008.2 |
| 20260904223427 | 101 | 165 | 4.0 | 10.0 | 0.00 | 0.00 | 0.00 | 30 | 1008.5 |
| 20260904222527 | 102 | 214 | 4.0 | 7.0 | 0.00 | 0.00 | 0.00 | 29 | 1008.4 |
| 20260904221627 | 101 | 198 | 2.0 | 12.0 | 0.00 | 0.00 | 0.00 | 30 | 1008.5 |
| 20260904220727 | 100 | 229 | 2.0 | 5.0 | 0.00 | 0.00 | 0.00 | 31 | 1008.6 |
| 20260904215827 | 100 | 227 | 5.0 | 11.0 | 0.00 | 0.00 | 0.00 | 31 | 1008.7 |
| 20260904214927 | 101 | 162 | 5.0 | 12.0 | 0.00 | 0.00 | 0.00 | 31 | 1009.0 |
| 20260904214027 | 101 | 164 | 4.0 | 14.0 | 0.00 | 0.00 | 0.00 | 31 | 1009.1 |
| 20260904213127 | 102 | 170 | 3.0 | 10.0 | 0.00 | 0.00 | 0.00 | 30 | 1009.1 |
| 20260904212227 | 100 | 186 | 3.0 | 7.0 | 0.00 | 0.00 | 0.00 | 31 | 1009.2 |
| 20260904211327 | 99 | 164 | 4.0 | 7.0 | 0.00 | 0.00 | 0.00 | 31 | 1009.4 |
| 20260904210427 | 100 | 194 | 5.0 | 13.0 | 0.00 | 0.00 | 0.00 | 30 | 1009.6 |
| 20260904205527 | 102 | 171 | 5.0 | 11.0 | 0.00 | 0.00 | 0.00 | 30 | 1009.5 |
| 20260904204627 | 103 | 202 | 4.0 | 12.0 | 0.00 | 0.00 | 0.00 | 29 | 1009.7 |
| 20260904203727 | 103 | 182 | 5.0 | 12.0 | 0.00 | 0.00 | 0.00 | 30 | 1009.9 |
| 20260904202827 | 102 | 245 | 5.0 | 12.0 | 0.00 | 0.00 | 0.00 | 30 | 1010.0 |
| 20260904201927 | 101 | 173 | 6.0 | 13.0 | 0.00 | 0.00 | 0.00 | 33 | 1010.1 |
| 20260904201027 | 100 | 156 | 6.0 | 17.0 | 0.00 | 0.00 | 0.00 | 33 | 1010.2 |
| 20260904200127 | 100 | 166 | 5.0 | 11.0 | 0.00 | 0.00 | 0.00 | 32 | 1010.4 |
| 20260904195227 | 101 | 174 | 4.0 | 14.0 | 0.00 | 0.00 | 0.00 | 33 | 1010.5 |
| 20260904194327 | 99 | 170 | 4.0 | 14.0 | 0.00 | 0.00 | 0.00 | 35 | 1010.7 |
| 20260904193427 | 100 | 179 | 4.0 | 14.0 | 0.00 | 0.00 | 0.00 | 33 | 1010.8 |
| 20260904192527 | 99 | 182 | 4.0 | 10.0 | 0.00 | 0.00 | 0.00 | 36 | 1010.8 |
| 20260904191627 | 99 | 153 | 5.0 | 10.0 | 0.00 | 0.00 | 0.00 | 37 | 1011.0 |
| 20260904190727 | 98 | 161 | 3.0 | 11.0 | 0.00 | 0.00 | 0.00 | 36 | 1011.2 |
| 20260904184927 | 97 | 196 | 4.0 | 7.0 | 0.00 | 0.00 | 0.00 | 39 | 1011.5 |
| 20260904184027 | 98 | 176 | 4.0 | 9.0 | 0.00 | 0.00 | 0.00 | 37 | 1011.7 |
| 20260904182227 | 96 | 167 | 5.0 | 9.0 | 0.00 | 0.00 | 0.00 | 40 | 1011.9 |
| 20260904181327 | 97 | 145 | 5.0 | 14.0 | 0.00 | 0.00 | 0.00 | 39 | 1012.1 |
| 20260904175527 | 96 | 131 | 5.0 | 10.0 | 0.00 | 0.00 | 0.00 | 42 | 1012.2 |
| 20260904174627 | 95 | 126 | 5.0 | 11.0 | 0.00 | 0.00 | 0.00 | 43 | 1012.2 |
| 20260904173727 | 96 | 134 | 5.0 | 13.0 | 0.00 | 0.00 | 0.00 | 42 | 1012.2 |
| 20260904172827 | 96 | 149 | 5.0 | 10.0 | 0.00 | 0.00 | 0.00 | 43 | 1012.2 |
| 20260904171027 | 94 | 154 | 6.0 | 13.0 | 0.00 | 0.00 | 0.00 | 46 | 1012.3 |
| 20260904165227 | 94 | 150 | 5.0 | 15.0 | 0.00 | 0.00 | 0.00 | 47 | 1012.1 |
| 20260904164327 | 94 | 135 | 5.0 | 11.0 | 0.00 | 0.00 | 0.00 | 47 | 1012.0 |
| 20260904163427 | 93 | 168 | 5.0 | 11.0 | 0.00 | 0.00 | 0.00 | 48 | 1012.0 |
| 20260904162527 | 93 | 160 | 7.0 | 15.0 | 0.00 | 0.00 | 0.00 | 48 | 1011.9 |
| 20260904161627 | 92 | 155 | 6.0 | 14.0 | 0.00 | 0.00 | 0.00 | 49 | 1012.0 |
| 20260904160727 | 91 | 147 | 5.0 | 11.0 | 0.00 | 0.00 | 0.00 | 51 | 1012.0 |
| 20260904155827 | 91 | 140 | 5.0 | 10.0 | 0.00 | 0.00 | 0.00 | 52 | 1012.0 |
| 20260904154927 | 90 | 147 | 6.0 | 10.0 | 0.00 | 0.00 | 0.00 | 53 | 1012.0 |
| 20260904154027 | 90 | 155 | 5.0 | 12.0 | 0.00 | 0.00 | 0.00 | 53 | 1011.9 |
| 20260904151327 | 89 | 134 | 5.0 | 12.0 | 0.00 | 0.00 | 0.00 | 55 | 1011.9 |
| 20260904150427 | 89 | 153 | 3.0 | 10.0 | 0.00 | 0.00 | 0.00 | 56 | 1011.8 |
| 20260904145527 | 89 | 131 | 3.0 | 7.0 | 0.00 | 0.00 | 0.00 | 56 | 1011.7 |
| 20260904144627 | 88 | 145 | 4.0 | 10.0 | 0.00 | 0.00 | 0.00 | 57 | 1011.6 |
| 20260904142827 | 87 | 158 | 3.0 | 13.0 | 0.00 | 0.00 | 0.00 | 58 | 1011.4 |
| 20260904141927 | 86 | 153 | 3.0 | 7.0 | 0.00 | 0.00 | 0.00 | 60 | 1011.4 |
| 20260904141027 | 86 | 151 | 3.0 | 9.0 | 0.00 | 0.00 | 0.00 | 61 | 1011.2 |
| 20260904140127 | 85 | 154 | 2.0 | 6.0 | 0.00 | 0.00 | 0.00 | 61 | 1011.1 |
| 20260904135227 | 85 | 148 | 2.0 | 5.0 | 0.00 | 0.00 | 0.00 | 61 | 1011.0 |
| 20260904134327 | 85 | 159 | 2.0 | 6.0 | 0.00 | 0.00 | 0.00 | 62 | 1010.9 |
| 20260904133427 | 84 | 147 | 1.0 | 6.0 | 0.00 | 0.00 | 0.00 | 62 | 1010.8 |
| 20260904132527 | 84 | 134 | 1.0 | 4.0 | 0.00 | 0.00 | 0.00 | 62 | 1010.6 |
| 20260904131627 | 84 | 128 | 1.0 | 5.0 | 0.00 | 0.00 | 0.00 | 62 | 1010.5 |
| 20260904130727 | 84 | 102 | 1.0 | 3.0 | 0.00 | 0.00 | 0.00 | 61 | 1010.3 |
| 20260904125827 | 84 | 102 | 1.0 | 4.0 | 0.00 | 0.00 | 0.00 | 61 | 1010.2 |
| 20260904124027 | 85 | 91 | 1.0 | 4.0 | 0.00 | 0.00 | 0.00 | 60 | 1010.0 |
| 20260904123127 | 85 | 101 | 1.0 | 3.0 | 0.00 | 0.00 | 0.00 | 60 | 1009.9 |
| 20260904122227 | 85 | 151 | 2.0 | 6.0 | 0.00 | 0.00 | 0.00 | 59 | 1009.8 |
| 20260904121327 | 85 | 152 | 4.0 | 9.0 | 0.00 | 0.00 | 0.00 | 59 | 1009.7 |
| 20260904120427 | 86 | 152 | 4.0 | 9.0 | 0.00 | 0.00 | 0.00 | 59 | 1009.7 |
| 20260904115527 | 85 | 151 | 4.0 | 11.0 | 0.00 | 0.00 | 0.00 | 59 | 1009.6 |
| 20260904114627 | 86 | 152 | 5.0 | 9.0 | 0.00 | 0.00 | 0.00 | 58 | 1009.6 |
| 20260904111926 | 86 | 150 | 3.0 | 8.0 | 0.00 | 0.00 | 0.00 | 58 | 1009.6 |
| 20260904111026 | 86 | 156 | 4.0 | 10.0 | 0.00 | 0.00 | 0.00 | 57 | 1009.6 |
| 20260904110127 | 86 | 155 | 3.0 | 10.0 | 0.00 | 0.00 | 0.00 | 57 | 1009.6 |
| 20260904105227 | 86 | 155 | 3.0 | 9.0 | 0.00 | 0.00 | 0.00 | 57 | 1009.6 |
| 20260904104327 | 86 | 151 | 2.0 | 9.0 | 0.00 | 0.00 | 0.00 | 57 | 1009.5 |
| 20260904103426 | 86 | 155 | 3.0 | 8.0 | 0.00 | 0.00 | 0.00 | 57 | 1009.5 |
| 20260904101627 | 86 | 145 | 2.0 | 9.0 | 0.00 | 0.00 | 0.00 | 57 | 1009.4 |
| 20260904100726 | 86 | 139 | 0.0 | 3.0 | 0.00 | 0.00 | 0.00 | 56 | 1009.2 |
| 20260904095826 | 86 | 158 | 1.0 | 4.0 | 0.00 | 0.00 | 0.00 | 56 | 1009.2 |
| 20260904094926 | 86 | 150 | 1.0 | 7.0 | 0.00 | 0.00 | 0.00 | 55 | 1009.2 |
| 20260904094026 | 86 | 155 | 1.0 | 5.0 | 0.00 | 0.00 | 0.00 | 56 | 1009.2 |
| 20260904093126 | 86 | 148 | 2.0 | 8.0 | 0.00 | 0.00 | 0.00 | 55 | 1009.2 |
| 20260904091327 | 86 | 151 | 2.0 | 6.0 | 0.00 | 0.00 | 0.00 | 55 | 1009.2 |
| 20260904090426 | 87 | 152 | 1.0 | 6.0 | 0.00 | 0.00 | 0.00 | 55 | 1009.2 |
| 20260904084626 | 87 | 151 | 0.0 | 3.0 | 0.00 | 0.00 | 0.00 | 55 | 1009.2 |
| 20260904083726 | 87 | 158 | 1.0 | 4.0 | 0.00 | 0.00 | 0.00 | 54 | 1009.2 |
| 20260904082826 | 87 | 186 | 0.0 | 3.0 | 0.00 | 0.00 | 0.00 | 54 | 1009.3 |
| 20260904081926 | 87 | 174 | 1.0 | 4.0 | 0.00 | 0.00 | 0.00 | 53 | 1009.3 |
| 20260904081026 | 88 | 160 | 1.0 | 4.0 | 0.00 | 0.00 | 0.00 | 53 | 1009.4 |
| 20260904080126 | 88 | 149 | 2.0 | 4.0 | 0.00 | 0.00 | 0.00 | 53 | 1009.4 |
| 20260904075226 | 88 | 161 | 1.0 | 6.0 | 0.00 | 0.00 | 0.00 | 52 | 1009.3 |
| 20260904074326 | 88 | 171 | 1.0 | 6.0 | 0.00 | 0.00 | 0.00 | 52 | 1009.3 |
| 20260904072526 | 88 | 149 | 1.0 | 8.0 | 0.00 | 0.00 | 0.00 | 52 | 1009.2 |
| 20260904070726 | 88 | 153 | 2.0 | 7.0 | 0.00 | 0.00 | 0.00 | 53 | 1009.1 |
| 20260904065826 | 88 | 166 | 2.0 | 10.0 | 0.00 | 0.00 | 0.00 | 53 | 1009.0 |
| 20260904064926 | 89 | 165 | 2.0 | 5.0 | 0.00 | 0.00 | 0.00 | 53 | 1008.9 |
| 20260904064026 | 89 | 160 | 3.0 | 7.0 | 0.00 | 0.00 | 0.00 | 52 | 1008.8 |
| 20260904063126 | 89 | 154 | 4.0 | 10.0 | 0.00 | 0.00 | 0.00 | 52 | 1008.8 |
| 20260904061326 | 90 | 149 | 4.0 | 11.0 | 0.00 | 0.00 | 0.00 | 50 | 1008.7 |
| 20260904060426 | 90 | 169 | 2.0 | 8.0 | 0.00 | 0.00 | 0.00 | 49 | 1008.6 |
| 20260904055526 | 90 | 177 | 2.0 | 7.0 | 0.00 | 0.00 | 0.00 | 48 | 1008.7 |
| 20260904054626 | 90 | 169 | 3.0 | 7.0 | 0.00 | 0.00 | 0.00 | 48 | 1008.7 |
| 20260904053726 | 90 | 183 | 3.0 | 6.0 | 0.00 | 0.00 | 0.00 | 48 | 1008.7 |
| 20260904052826 | 90 | 189 | 3.0 | 8.0 | 0.00 | 0.00 | 0.00 | 48 | 1008.6 |
| 20260904051926 | 90 | 186 | 3.0 | 8.0 | 0.00 | 0.00 | 0.00 | 47 | 1008.4 |
| 20260904051026 | 90 | 173 | 3.0 | 8.0 | 0.00 | 0.00 | 0.00 | 47 | 1008.4 |
| 20260904050126 | 90 | 184 | 4.0 | 8.0 | 0.00 | 0.00 | 0.00 | 46 | 1008.4 |
| 20260904045226 | 91 | 178 | 4.0 | 10.0 | 0.00 | 0.00 | 0.00 | 45 | 1008.3 |
| 20260904044326 | 91 | 184 | 3.0 | 8.0 | 0.00 | 0.00 | 0.00 | 44 | 1008.4 |
| 20260904042526 | 92 | 194 | 2.0 | 7.0 | 0.00 | 0.00 | 0.00 | 43 | 1008.4 |
| 20260904041626 | 92 | 192 | 2.0 | 6.0 | 0.00 | 0.00 | 0.00 | 43 | 1008.3 |
| 20260904040726 | 92 | 171 | 2.0 | 7.0 | 0.00 | 0.00 | 0.00 | 42 | 1008.1 |
| 20260904035826 | 92 | 178 | 1.0 | 4.0 | 0.00 | 0.00 | 0.00 | 41 | 1008.0 |
| 20260904034026 | 92 | 170 | 2.0 | 5.0 | 0.00 | 0.00 | 0.00 | 41 | 1007.8 |
| 20260904033126 | 92 | 156 | 2.0 | 7.0 | 0.00 | 0.00 | 0.00 | 42 | 1007.7 |
| 20260904032226 | 92 | 124 | 1.0 | 5.0 | 0.00 | 0.00 | 0.00 | 42 | 1007.5 |
| 20260904031326 | 92 | 125 | 2.0 | 5.0 | 0.00 | 0.00 | 0.00 | 42 | 1007.4 |
| 20260904030426 | 92 | 145 | 1.0 | 6.0 | 0.00 | 0.00 | 0.00 | 42 | 1007.2 |
| 20260904025526 | 93 | 131 | 1.0 | 6.0 | 0.00 | 0.00 | 0.00 | 42 | 1007.1 |
| 20260904024626 | 93 | 132 | 2.0 | 6.0 | 0.00 | 0.00 | 0.00 | 42 | 1007.0 |
| 20260904022826 | 93 | 145 | 3.0 | 10.0 | 0.00 | 0.00 | 0.00 | 41 | 1006.9 |
| 20260904021026 | 94 | 155 | 7.0 | 12.0 | 0.00 | 0.00 | 0.00 | 41 | 1006.9 |
| 20260904020126 | 94 | 156 | 7.0 | 14.0 | 0.00 | 0.00 | 0.00 | 40 | 1007.0 |
| 20260904014326 | 94 | 163 | 7.0 | 14.0 | 0.00 | 0.00 | 0.00 | 39 | 1007.0 |
| 20260904013426 | 95 | 166 | 8.0 | 18.0 | 0.00 | 0.00 | 0.00 | 38 | 1006.9 |
| 20260904012526 | 96 | 179 | 7.0 | 17.0 | 0.00 | 0.00 | 0.00 | 37 | 1006.9 |
| 20260904011626 | 98 | 199 | 2.0 | 17.0 | 0.00 | 0.00 | 0.00 | 34 | 1006.6 |
| 20260904010726 | 99 | 181 | 3.0 | 7.0 | 0.00 | 0.00 | 0.00 | 32 | 1006.5 |